Showing default

COSMOS 2246, 22647

Orbit data source: Space-Track

COSMOS 2246, 22647 is a payload satellite owned by VKS (CIS) in LEO that was launched on Tue, 11 May 1993 UTC via a TSIKLON-3 launch vehicle from the Plesetsk Missile And Space Complex (PKMTR). Payload-class satellites include a variety of spacecraft equipped with specific instruments for various scientific and technological missions. These include communications satellites like Starlink; space stations such as the ISS; scientific satellites like the Hubble; Earth observation satellites from companies like Planet Labs, Umbra, and HawkEye 360; GPS; miniature CubeSats for education and research; and military/defense satellites.

Loading next visibility...
Identifier
22647, 1993-030B
Orbit
LEO
Country
Flag of CISCIS
Related business
Manufacturer
NPO PM
Mission
Defense Communications
Bus & Motor
STRELA-3, Unknown motor
Mass
225 kg wet, 225 kg dry
Launch date (UTC)
1993-05-11 (33 years ago)
Launch vehicle
TSIKLON-3
Launch site
Plesetsk Missile And Space Complex (PKMTR)
Object type
Payload
Rocket body
Debris
Shape & HBR
Cyl, 0.8 m
Radar Cross Section
1.257 m², Medium (>0.1 m² and < 1m²)

Expand to show TLE details & history
Last TLE update: 12 hours ago

TLE from 12 hours ago
0 COSMOS 2246
1 22647U 93030B   25346.77077746  .00000022  00000-0  61732-4 0  9998
2 22647  82.5860  75.9532 0009273 342.4939  17.5831 12.63630925502984
Epoch: 2025-12-12T18:29Z
TLE epoch observation values (Epoch: 2025-12-12T18:29:55.172Z)
Latitude
-0.00012°
Longitude
76.76568°
Altitude
1,403.842 km
Speed
7.161 km/s
True Right ascension
05h 03m 48s
True Declination
0° 00' 00"
Sunlit
Object was in full shadow at epoch
Visualization orbit readout
Latitude
Unknown
Longitude
Unknown
Altitude
Unknown
Speed
Unknown
Apparent Right ascension
Unknown
Apparent Declination
Unknown
Sunlit
N/A
Visualization observer readout
Local Sidereal Time
05:21:55
Azimuth
Unknown
Elevation
Unknown
Doppler factor
Unknown
Orbital elements
Apogee altitude
1,412.53 km
Perigee altitude
1,398.094 km
Semi-major axis
7,783.449 km
Eccentricity
0.00093
Inclination
82.586°
RAAN
75.9532°
Arg. of periapsis
342.4939°
True anomaly
17.61524°
Mean anomaly
17.5831°
Eccentric anomaly
17.59916°
Mean motion
3.16071 °/min
Orbital period
113.9 mins
BSTAR
0.000061732
Loading maneuver chart data...
Computing Atmospheric mass density...
Loading historical data...
Loading historical data...
Loading historical data...
Loading historical data...
Loading historical data...
Loading historical data...
Loading historical data...

Documentation

Showing up to 5 results
|